Truth — WYV5559 — position and weather

sailwx.info

Track history (hours):
 
Tides and Currents Weather Stations Pressure Air Temp Water Temp Dewpoint Dewpoint Depression Visibility Wind Speed Wind Dir Waves Ship Positions

Truth

Owner: TRUTH AQUATIES INC, SANTA BARBARA, CA. More information available from US FCC via Universal Licensing System and Coast Guard Vessel Documentation Center.

Last reported at 2014-Oct-28 01:13 UTC. Time now 2014-Nov-01 03:54 UTC.
Position N 34°01' W 119°30'.

Length 22 m.

Type: Diving. MMSI: 367384840.

Date/timePositionNaut miles runAvg speedWind from/ knotsBaromVisibWave heightAir tempDewpointWater temp
2014-Oct-28 01:13N 34°01' W 119°30'6 8.9
2014-Oct-28 00:33N 34°01' W 119°23'42 1.2
2014-Oct-26 13:22N 34°26' W 120°02'8 9.9
2014-Oct-26 12:33N 34°24' W 119°53'10 9.5
2014-Oct-26 11:32N 34°23' W 119°41'1 1.0
2014-Oct-26 10:17N 34°24' W 119°42'0 0.0
2014-Oct-26 09:29N 34°24' W 119°42'0 0.0
2014-Oct-26 08:29N 34°24' W 119°42'0 0.0
2014-Oct-26 07:29N 34°24' W 119°42'0 0.0
2014-Oct-26 06:23N 34°24' W 119°42'0 0.0
2014-Oct-26 01:29N 34°24' W 119°41'0 0.1
2014-Oct-26 00:30N 34°24' W 119°42'8 7.6
2014-Oct-25 23:26N 34°17' W 119°38'5 0.4
2014-Oct-25 11:27N 34°21' W 119°40'4 3.6
2014-Oct-25 10:27N 34°24' W 119°42'0 0.0
2014-Oct-25 09:30N 34°24' W 119°42'0 0.0
2014-Oct-25 06:30N 34°24' W 119°42'0 0.0
2014-Oct-24 20:33N 34°24' W 119°42'0 0.0
2014-Oct-23 22:08N 34°24' W 119°42'0 0.0
2014-Oct-23 20:08N 34°24' W 119°42'0 0.0
2014-Oct-23 19:26N 34°24' W 119°42'0 0.0
2014-Oct-23 01:20N 34°24' W 119°42'0 0.0
2014-Oct-23 00:14N 34°24' W 119°42'0 0.0
2014-Oct-22 23:26N 34°24' W 119°42'0 0.0
2014-Oct-22 22:32N 34°24' W 119°42'0 0.0
2014-Oct-22 21:32N 34°24' W 119°42'0 0.0
2014-Oct-22 20:32N 34°24' W 119°42'0 0.0
2014-Oct-22 19:32N 34°24' W 119°42'0 0.0
2014-Oct-22 12:32N 34°24' W 119°42'0 0.0
2014-Oct-21 23:33N 34°24' W 119°42'0 0.0
2014-Oct-21 22:33N 34°24' W 119°42'0 0.0
2014-Oct-21 21:15N 34°24' W 119°42'0 0.0
2014-Oct-21 20:27N 34°24' W 119°42'0 0.0
2014-Oct-21 19:33N 34°24' W 119°42'0 0.0
2014-Oct-21 00:33N 34°24' W 119°42'0 0.0
2014-Oct-20 23:33N 34°24' W 119°42'0 0.0
2014-Oct-20 22:33N 34°24' W 119°42'0 0.0
2014-Oct-20 21:33N 34°24' W 119°42'0 0.0
2014-Oct-20 20:33N 34°24' W 119°42'0 0.0
2014-Oct-20 17:33N 34°24' W 119°42'0 0.0
2014-Oct-20 16:33N 34°24' W 119°42'0 0.0
2014-Oct-20 15:33N 34°24' W 119°42'0 0.0
2014-Oct-20 14:33N 34°24' W 119°42'0 0.0
2014-Oct-20 13:33N 34°24' W 119°42'0 0.0
2014-Oct-20 12:33N 34°24' W 119°42'0 0.0
2014-Oct-20 11:33N 34°24' W 119°42'0 0.0
2014-Oct-20 10:27N 34°24' W 119°42'0 0.0
2014-Oct-20 09:33N 34°24' W 119°42'0 0.0
2014-Oct-20 08:33N 34°24' W 119°42'0 0.0
2014-Oct-20 07:27N 34°24' W 119°42'0 0.0
2014-Oct-20 06:33N 34°24' W 119°42'0 0.0
2014-Oct-20 05:33N 34°24' W 119°42'0 0.0
2014-Oct-20 04:33N 34°24' W 119°42'0 0.0
2014-Oct-20 03:33N 34°24' W 119°42'0 0.0
2014-Oct-20 01:33N 34°24' W 119°42'0 0.0
2014-Oct-20 00:33N 34°24' W 119°42'0 0.0
2014-Oct-19 23:33N 34°24' W 119°42'0 0.0
2014-Oct-19 22:33N 34°24' W 119°42'0 0.0
2014-Oct-19 21:33N 34°24' W 119°42'0 0.0
2014-Oct-19 20:33N 34°24' W 119°42'0 0.0
2014-Oct-19 19:27N 34°24' W 119°42'0 0.0
2014-Oct-19 17:21N 34°24' W 119°42'0 0.0
2014-Oct-19 16:33N 34°24' W 119°42'0 0.0
2014-Oct-19 15:33N 34°24' W 119°42'0 0.0
2014-Oct-19 14:33N 34°24' W 119°42'0 0.0
2014-Oct-19 13:33N 34°24' W 119°42'0 0.0
2014-Oct-19 12:33N 34°24' W 119°42'0 0.0
2014-Oct-19 11:33N 34°24' W 119°42'0 0.0
2014-Oct-19 10:27N 34°24' W 119°42'0 0.0
2014-Oct-19 09:33N 34°24' W 119°42'0 0.0
2014-Oct-19 08:27N 34°24' W 119°42'0 0.0
2014-Oct-19 07:27N 34°24' W 119°42'0 0.0
2014-Oct-19 06:33N 34°24' W 119°42'0 0.0
2014-Oct-19 05:15N 34°24' W 119°42'0 0.0
2014-Oct-19 04:33N 34°24' W 119°42'0 0.0
2014-Oct-19 01:27N 34°24' W 119°42'0 0.0
2014-Oct-19 00:18N 34°24' W 119°42'1 1.7
2014-Oct-18 23:31N 34°23' W 119°41'  
Track history (hours):
 
Tides and Currents Weather Stations Pressure Air Temp Water Temp Dewpoint Dewpoint Depression Visibility Wind Speed Wind Dir Waves Ship Positions

Truth

Owner: TRUTH AQUATIES INC, SANTA BARBARA, CA. More information available from US FCC via Universal Licensing System and Coast Guard Vessel Documentation Center.

Last reported at 2014-Oct-28 01:13 UTC. Time now 2014-Nov-01 03:54 UTC.
Position N 34°01' W 119°30'.

Length 22 m.

Type: Diving. MMSI: 367384840.

Date/timePositionNaut miles runAvg speedWind from/ knotsBaromVisibWave heightAir tempDewpointWater temp
2014-Oct-28 01:13N 34°01' W 119°30'6 8.9
2014-Oct-28 00:33N 34°01' W 119°23'42 1.2
2014-Oct-26 13:22N 34°26' W 120°02'8 9.9
2014-Oct-26 12:33N 34°24' W 119°53'10 9.5
2014-Oct-26 11:32N 34°23' W 119°41'1 1.0
2014-Oct-26 10:17N 34°24' W 119°42'0 0.0
2014-Oct-26 09:29N 34°24' W 119°42'0 0.0
2014-Oct-26 08:29N 34°24' W 119°42'0 0.0
2014-Oct-26 07:29N 34°24' W 119°42'0 0.0
2014-Oct-26 06:23N 34°24' W 119°42'0 0.0
2014-Oct-26 01:29N 34°24' W 119°41'0 0.1
2014-Oct-26 00:30N 34°24' W 119°42'8 7.6
2014-Oct-25 23:26N 34°17' W 119°38'5 0.4
2014-Oct-25 11:27N 34°21' W 119°40'4 3.6
2014-Oct-25 10:27N 34°24' W 119°42'0 0.0
2014-Oct-25 09:30N 34°24' W 119°42'0 0.0
2014-Oct-25 06:30N 34°24' W 119°42'0 0.0
2014-Oct-24 20:33N 34°24' W 119°42'0 0.0
2014-Oct-23 22:08N 34°24' W 119°42'0 0.0
2014-Oct-23 20:08N 34°24' W 119°42'0 0.0
2014-Oct-23 19:26N 34°24' W 119°42'0 0.0
2014-Oct-23 01:20N 34°24' W 119°42'0 0.0
2014-Oct-23 00:14N 34°24' W 119°42'0 0.0
2014-Oct-22 23:26N 34°24' W 119°42'0 0.0
2014-Oct-22 22:32N 34°24' W 119°42'0 0.0
2014-Oct-22 21:32N 34°24' W 119°42'0 0.0
2014-Oct-22 20:32N 34°24' W 119°42'0 0.0
2014-Oct-22 19:32N 34°24' W 119°42'0 0.0
2014-Oct-22 12:32N 34°24' W 119°42'0 0.0
2014-Oct-21 23:33N 34°24' W 119°42'0 0.0
2014-Oct-21 22:33N 34°24' W 119°42'0 0.0
2014-Oct-21 21:15N 34°24' W 119°42'0 0.0
2014-Oct-21 20:27N 34°24' W 119°42'0 0.0
2014-Oct-21 19:33N 34°24' W 119°42'0 0.0
2014-Oct-21 00:33N 34°24' W 119°42'0 0.0
2014-Oct-20 23:33N 34°24' W 119°42'0 0.0
2014-Oct-20 22:33N 34°24' W 119°42'0 0.0
2014-Oct-20 21:33N 34°24' W 119°42'0 0.0
2014-Oct-20 20:33N 34°24' W 119°42'0 0.0
2014-Oct-20 17:33N 34°24' W 119°42'0 0.0
2014-Oct-20 16:33N 34°24' W 119°42'0 0.0
2014-Oct-20 15:33N 34°24' W 119°42'0 0.0
2014-Oct-20 14:33N 34°24' W 119°42'0 0.0
2014-Oct-20 13:33N 34°24' W 119°42'0 0.0
2014-Oct-20 12:33N 34°24' W 119°42'0 0.0
2014-Oct-20 11:33N 34°24' W 119°42'0 0.0
2014-Oct-20 10:27N 34°24' W 119°42'0 0.0
2014-Oct-20 09:33N 34°24' W 119°42'0 0.0
2014-Oct-20 08:33N 34°24' W 119°42'0 0.0
2014-Oct-20 07:27N 34°24' W 119°42'0 0.0
2014-Oct-20 06:33N 34°24' W 119°42'0 0.0
2014-Oct-20 05:33N 34°24' W 119°42'0 0.0
2014-Oct-20 04:33N 34°24' W 119°42'0 0.0
2014-Oct-20 03:33N 34°24' W 119°42'0 0.0
2014-Oct-20 01:33N 34°24' W 119°42'0 0.0
2014-Oct-20 00:33N 34°24' W 119°42'0 0.0
2014-Oct-19 23:33N 34°24' W 119°42'0 0.0
2014-Oct-19 22:33N 34°24' W 119°42'0 0.0
2014-Oct-19 21:33N 34°24' W 119°42'0 0.0
2014-Oct-19 20:33N 34°24' W 119°42'0 0.0
2014-Oct-19 19:27N 34°24' W 119°42'0 0.0
2014-Oct-19 17:21N 34°24' W 119°42'0 0.0
2014-Oct-19 16:33N 34°24' W 119°42'0 0.0
2014-Oct-19 15:33N 34°24' W 119°42'0 0.0
2014-Oct-19 14:33N 34°24' W 119°42'0 0.0
2014-Oct-19 13:33N 34°24' W 119°42'0 0.0
2014-Oct-19 12:33N 34°24' W 119°42'0 0.0
2014-Oct-19 11:33N 34°24' W 119°42'0 0.0
2014-Oct-19 10:27N 34°24' W 119°42'0 0.0
2014-Oct-19 09:33N 34°24' W 119°42'0 0.0
2014-Oct-19 08:27N 34°24' W 119°42'0 0.0
2014-Oct-19 07:27N 34°24' W 119°42'0 0.0
2014-Oct-19 06:33N 34°24' W 119°42'0 0.0
2014-Oct-19 05:15N 34°24' W 119°42'0 0.0
2014-Oct-19 04:33N 34°24' W 119°42'0 0.0
2014-Oct-19 01:27N 34°24' W 119°42'0 0.0
2014-Oct-19 00:18N 34°24' W 119°42'1 1.7
2014-Oct-18 23:31N 34°23' W 119°41'  

Dump ship's entire track history